[[{"header":{"parameterUnit":"m.s-1","parameterCategory":1,"la1":30.2991,"la2":30.254,"lo1":-89.0895,"lo2":-89.0444,"dy":0.0017,"dx":0.0017,"nx":28,"ny":28,"refTime":"2023-07-18T21:00:00:Z","depth":0,"parameterNumber":2,"parameterNumberName":"U-component_of_WINDS"},"data":[0,0,0,0,0,0,0,0,0,0,0,0,0,0,0,0,0,0,0,0,0,0,0,0,0,0,0,0,0,0,0,0,0,0,0,0,0,0,0,0,0,0,0,0,0,0,0,0,0,0,0,0,0,0,0,0,0,0,0.2257,0.2258,0,0.232,0.2321,0.2322,0.2367,0.2367,0.2368,0.2368,0.2437,0.2439,0.244,0,0,0,0,0,0,0,0,0,0,0,0,0,0.218,0.2181,0.2257,0.2258,0.2259,0.232,0.2321,0.2322,0.2367,0.2367,0.2368,0.2368,0.2437,0.2438,0.244,0,0,0,0,0,0,0,0,0,0,0,0,0,0.2225,0.2181,0.2257,0.2288,0.2292,0.232,0.2321,0.2322,0.2367,0.2367,0.2368,0.2368,0.2436,0.2438,0.244,0.2444,0,0,0.2447,0.2448,0,0,0,0,0,0,0,0,0.2223,0.2228,0.2283,0.2286,0.229,0.2336,0.2319,0.2363,0.2367,0.2338,0.2368,0.2369,0.2403,0.2408,0.2419,0.2447,0.245,0.2448,0.2449,0.245,0.2451,0,0,0,0,0,0,0,0.2219,0.2226,0.2282,0.2284,0.2288,0.2301,0.2308,0.2328,0.2367,0.2341,0.2344,0.2351,0.2406,0.2417,0.2421,0.2451,0.2448,0.245,0.2451,0.2452,0.2486,0.2485,0,0,0,0,0,0,0.2211,0.2223,0.228,0.2284,0.2257,0.2302,0.231,0.2321,0.2367,0.2375,0.235,0.2353,0.2413,0.2418,0.2424,0.2431,0.245,0.2452,0.2453,0.2486,0.2486,0.2485,0,0,0,0,0,0,0.2209,0.2215,0.2278,0.2254,0.2263,0.2302,0.2315,0.2322,0.2333,0.2374,0.2382,0.2354,0.2413,0.2421,0.2438,0.2434,0.2453,0.2455,0.2487,0.2486,0.2486,0.2446,0,0,0,0,0,0,0.2206,0.2214,0.2215,0.2254,0.2264,0.229,0.2315,0.2323,0.2337,0.234,0.238,0.2387,0.2414,0.2435,0.2441,0.2438,0.2457,0.2487,0.2487,0.2486,0.2448,0.2444,0.2441,0,0,0,0,0,0.2203,0.2202,0.2215,0.2222,0.2266,0.2289,0.2296,0.2325,0.2336,0.2338,0.2364,0.2386,0.2434,0.2436,0.2443,0.2441,0.2488,0.2487,0.2486,0.2449,0.2445,0.2441,0,0,0,0,0,0,0.2163,0.2208,0.2222,0.2233,0.2257,0.2297,0.23,0.2319,0.2342,0.2344,0.2382,0.2391,0.2405,0.2425,0.2427,0.2447,0.2464,0.2464,0.2433,0.2429,0.2426,0.2421,0.2459,0,0,0,0,0,0.2155,0.2169,0.2208,0.2214,0.2225,0.226,0.2272,0.2293,0.2319,0.233,0.2358,0.2384,0.2405,0.2418,0.244,0.2451,0.2461,0.2453,0.2449,0.2446,0.2446,0.2454,0.2451,0.2482,0.2482,0.2482,0,0,0.214,0.2166,0.2173,0.2207,0.2228,0.2243,0.2269,0.2284,0.2296,0.2333,0.2351,0.2372,0.2404,0.2419,0.2426,0.2436,0.244,0.2445,0.2442,0.2444,0.2453,0.245,0.2447,0.2481,0.2481,0.2481,0,0,0.2119,0.214,0.2147,0.2167,0.2198,0.2221,0.2223,0.226,0.2275,0.2294,0.2322,0.2338,0.2373,0.2395,0.241,0.2398,0.2419,0.2404,0.2385,0.2393,0.239,0.2388,0.2385,0.2383,0.2404,0.2403,0.2403,0,0.2096,0.2119,0.2149,0.2162,0.2177,0.221,0.2218,0.2237,0.2274,0.2284,0.2293,0.2338,0.2362,0.2382,0.2379,0.239,0.2394,0.24,0.2388,0.2386,0.2385,0.2382,0.238,0.2401,0.2402,0.2402,0.2402,0,0.2089,0.2105,0.2107,0.214,0.2155,0.2166,0.2199,0.2211,0.2231,0.2253,0.2272,0.2302,0.233,0.2337,0.2356,0.236,0.2365,0.238,0.2398,0.2379,0.2377,0.2376,0.2399,0.2399,0.24,0.24,0,0,0.2045,0.2094,0.2095,0.2111,0.2147,0.216,0.2173,0.2199,0.2209,0.2234,0.2246,0.2275,0.229,0.2307,0.233,0.2336,0.2325,0.2352,0.2353,0.2346,0.2332,0.232,0.2318,0.2339,0.2339,0.2339,0.2329,0,0.203,0.2053,0.2081,0.2096,0.2111,0.2142,0.2154,0.2178,0.22,0.2217,0.2242,0.2262,0.2279,0.229,0.2298,0.2325,0.2323,0.2326,0.2353,0.2353,0.2344,0.2317,0.2304,0.2293,0.2329,0.2328,0.2328,0,0.2016,0.2037,0.2053,0.2088,0.2096,0.2105,0.2132,0.2147,0.2176,0.2192,0.2211,0.2235,0.2252,0.2266,0.2291,0.2292,0.2305,0.232,0.232,0.2324,0.234,0.2321,0.229,0.2289,0.2327,0.2327,0.2327,0,0.1983,0.2015,0.2029,0.2041,0.2083,0.2089,0.2107,0.2136,0.215,0.2174,0.2184,0.2209,0.2224,0.2244,0.2275,0.2283,0.2296,0.2313,0.231,0.231,0.2312,0.2312,0.2284,0.2319,0.2319,0.2319,0.2319,0,0.1963,0.1972,0.2015,0.2023,0.2034,0.2066,0.2076,0.2097,0.2123,0.2137,0.2167,0.2179,0.2219,0.2237,0.2262,0.2278,0.2285,0.2299,0.2305,0.2296,0.2294,0.2305,0.2307,0.2319,0.2319,0.2319,0.2319,0,0.1928,0.1957,0.1974,0.2011,0.2021,0.2027,0.206,0.207,0.2094,0.2111,0.2117,0.2154,0.2177,0.221,0.2243,0.2259,0.2273,0.2283,0.2263,0.2266,0.2262,0.2262,0.2241,0.224,0.2275,0.2275,0.2274,0,0.1913,0.192,0.1959,0.1969,0.1986,0.2003,0.2018,0.205,0.2064,0.2098,0.2104,0.2129,0.215,0.2186,0.2216,0.2242,0.2254,0.2244,0.2258,0.2249,0.2254,0.2253,0.2255,0.2241,0.2241,0.224,0.224,0,0.1885,0.1899,0.1918,0.1942,0.1958,0.1979,0.2001,0.2009,0.2046,0.2061,0.2084,0.21,0.2134,0.2158,0.2188,0.2209,0.2231,0.2235,0.2236,0.2227,0.2215,0.2222,0.2254,0.2236,0.2236,0.2237,0.2237,0.2237,0.186,0.1868,0.1896,0.1916,0.1936,0.1957,0.1968,0.1992,0.2012,0.204,0.2059,0.2081,0.2111,0.2153,0.2172,0.2191,0.22,0.2201,0.2202,0.2201,0.2199,0.2212,0.2197,0.2197,0.2197,0.2197,0.2197,0,0.1834,0.1854,0.1872,0.1901,0.1918,0.1936,0.1962,0.1974,0.1993,0.2018,0.2039,0.2065,0.209,0.2122,0.2149,0.2158,0.2169,0.2164,0.2164,0.2168,0.2189,0.2185,0.2155,0.2155,0.2155,0.2155,0.2155,0.2155,0.1822,0.1836,0.1854,0.1879,0.1899,0.192,0.1933,0.1953,0.1973,0.2001,0.2021,0.2041,0.207,0.2099,0.2123,0.2132,0.2141,0.2133,0.2145,0.2163,0.2167,0.2171,0.2168,0.2134,0.2134,0.2123,0.2123,0.2123]},{"header":{"parameterUnit":"m.s-1","parameterCategory":1,"la1":30.2991,"la2":30.254,"lo1":-89.0895,"lo2":-89.0444,"dy":0.0017,"dx":0.0017,"nx":28,"ny":28,"refTime":"2023-07-18T21:00:00:Z","depth":0,"parameterNumber":3,"parameterNumberName":"V-component_of_WINDS"},"data":[0,0,0,0,0,0,0,0,0,0,0,0,0,0,0,0,0,0,0,0,0,0,0,0,0,0,0,0,0,0,0,0,0,0,0,0,0,0,0,0,0,0,0,0,0,0,0,0,0,0,0,0,0,0,0,0,0,0,4.3866,4.3866,0,4.3862,4.3862,4.3862,4.3837,4.3837,4.3836,4.3836,4.3832,4.3832,4.3833,0,0,0,0,0,0,0,0,0,0,0,0,0,4.3851,4.3852,4.3866,4.3866,4.3866,4.3862,4.3862,4.3862,4.3838,4.3837,4.3836,4.3835,4.3831,4.3832,4.3833,0,0,0,0,0,0,0,0,0,0,0,0,0,4.3854,4.3852,4.3866,4.3853,4.3852,4.3862,4.3862,4.3862,4.3838,4.3837,4.3836,4.3835,4.3831,4.3832,4.3833,4.3855,0,0,4.3835,4.3835,0,0,0,0,0,0,0,0,4.3854,4.3854,4.3855,4.3854,4.3853,4.3849,4.3856,4.386,4.3838,4.3843,4.3836,4.3835,4.3838,4.3838,4.384,4.3855,4.3855,4.3835,4.3835,4.3836,4.3836,0,0,0,0,0,0,0,4.3853,4.3854,4.3865,4.3855,4.3854,4.3848,4.3847,4.3856,4.3846,4.3843,4.3841,4.3841,4.3837,4.3839,4.3839,4.3855,4.3835,4.3835,4.3836,4.3836,4.3887,4.3888,0,0,0,0,0,0,4.3855,4.3854,4.3865,4.3865,4.3851,4.3849,4.3848,4.3852,4.3846,4.3844,4.3842,4.384,4.3838,4.3839,4.3839,4.3864,4.3835,4.3836,4.3837,4.3886,4.3887,4.3888,0,0,0,0,0,0,4.3855,4.3856,4.3865,4.3859,4.386,4.385,4.3854,4.3852,4.3853,4.3845,4.3843,4.3845,4.3838,4.3838,4.3851,4.3863,4.3836,4.3837,4.3885,4.3886,4.3888,4.3914,0,0,0,0,0,0,4.3855,4.3856,4.3865,4.3859,4.386,4.3877,4.3855,4.3852,4.3855,4.3852,4.3848,4.3846,4.3837,4.385,4.3852,4.3864,4.3838,4.3884,4.3886,4.3887,4.3912,4.3917,4.392,0,0,0,0,0,4.3854,4.3873,4.3865,4.3867,4.387,4.3878,4.3878,4.3867,4.3856,4.3864,4.3859,4.3846,4.3862,4.3852,4.3853,4.3866,4.3883,4.3885,4.3887,4.3911,4.3916,4.392,0,0,0,0,0,0,4.388,4.3872,4.3864,4.3881,4.388,4.3874,4.3884,4.3873,4.3876,4.3873,4.386,4.3859,4.3874,4.3871,4.386,4.3887,4.387,4.3873,4.3888,4.3893,4.3896,4.3896,4.3838,0,0,0,0,0,4.3888,4.3895,4.3887,4.3903,4.3903,4.3894,4.3896,4.3888,4.3887,4.3887,4.3882,4.3881,4.3886,4.3889,4.3893,4.3912,4.3911,4.3922,4.3926,4.3929,4.3931,4.394,4.3945,4.3895,4.3895,4.3895,0,0,4.3904,4.39,4.3905,4.3908,4.3907,4.3914,4.3893,4.3902,4.3907,4.3888,4.3899,4.3896,4.3894,4.391,4.3917,4.3908,4.3944,4.3932,4.3934,4.3934,4.3943,4.3947,4.3951,4.3897,4.3896,4.3896,0,0,4.3936,4.3934,4.3947,4.3946,4.3944,4.3937,4.3941,4.3936,4.3933,4.3944,4.393,4.3936,4.3944,4.3943,4.3944,4.3976,4.3964,4.3978,4.3998,4.4007,4.4011,4.4014,4.4024,4.4028,4.398,4.398,4.398,0,4.3956,4.3966,4.3955,4.3964,4.3965,4.3949,4.3961,4.3961,4.396,4.3961,4.3952,4.3962,4.396,4.3975,4.3983,4.3984,4.3987,4.3978,4.4011,4.4014,4.4017,4.4027,4.4031,4.3982,4.3982,4.3981,4.3981,0,4.399,4.3997,4.4008,4.4007,4.401,4.4021,4.4011,4.4015,4.4007,4.4002,4.4013,4.401,4.4013,4.4016,4.4008,4.403,4.4024,4.4013,4.3996,4.4024,4.4033,4.4036,4.3984,4.3983,4.3983,4.3983,0,0,4.4037,4.4031,4.4035,4.4034,4.4031,4.4036,4.4046,4.4049,4.4052,4.4053,4.406,4.4068,4.4058,4.4059,4.4051,4.4059,4.4083,4.4046,4.4046,4.4052,4.4106,4.4113,4.4118,4.4076,4.4077,4.4077,4.4105,0,4.4067,4.4084,4.4074,4.4092,4.4098,4.4082,4.4091,4.409,4.4085,4.409,4.4085,4.409,4.4076,4.4077,4.4084,4.4079,4.4093,4.4077,4.4082,4.4082,4.4082,4.4123,4.4131,4.4157,4.4109,4.411,4.411,0,4.4104,4.4106,4.4124,4.4119,4.4122,4.4129,4.4131,4.4136,4.4134,4.413,4.4131,4.4121,4.413,4.4114,4.4126,4.4115,4.4117,4.4115,4.4116,4.4115,4.4097,4.4122,4.4166,4.4169,4.4116,4.4115,4.4115,0,4.4135,4.4142,4.4154,4.4154,4.4149,4.4155,4.4153,4.4151,4.4153,4.4154,4.4155,4.4158,4.4159,4.4161,4.4152,4.4142,4.4165,4.4149,4.4161,4.4162,4.4166,4.4166,4.421,4.4169,4.4169,4.4169,4.4169,0,4.4169,4.418,4.4168,4.4175,4.4187,4.4176,4.4189,4.4186,4.4184,4.4189,4.4177,4.4183,4.4171,4.4175,4.4168,4.4179,4.418,4.4177,4.4174,4.4177,4.4177,4.4177,4.4175,4.417,4.417,4.417,4.417,0,4.4205,4.4198,4.4209,4.4203,4.4202,4.4212,4.4207,4.4213,4.4208,4.4215,4.4216,4.4208,4.4213,4.4204,4.4208,4.4203,4.4218,4.4213,4.4218,4.4216,4.4229,4.4228,4.4274,4.4279,4.4236,4.4237,4.4237,0,4.4227,4.4235,4.423,4.4233,4.4232,4.4238,4.424,4.4229,4.4232,4.4231,4.4237,4.4241,4.4243,4.4251,4.4245,4.4248,4.4243,4.4259,4.4243,4.4245,4.4242,4.4241,4.4242,4.4262,4.4262,4.4263,4.4263,0,4.4265,4.4261,4.4264,4.4266,4.4269,4.427,4.4271,4.4274,4.4263,4.4266,4.4271,4.4273,4.4277,4.428,4.4282,4.428,4.4269,4.4268,4.4271,4.4273,4.4276,4.4274,4.4226,4.4267,4.4267,4.4266,4.4266,4.4266,4.4294,4.43,4.4298,4.4302,4.4301,4.4302,4.4307,4.4303,4.4306,4.4308,4.4302,4.4308,4.4306,4.4307,4.4306,4.4311,4.4304,4.4308,4.4309,4.431,4.4312,4.4276,4.4311,4.4311,4.4311,4.4311,4.4311,0,4.433,4.4328,4.4332,4.4333,4.4336,4.4327,4.4327,4.433,4.4335,4.4334,4.4337,4.4342,4.4346,4.434,4.4343,4.4348,4.4343,4.4349,4.4348,4.4347,4.4318,4.4315,4.4352,4.4352,4.4352,4.4352,4.4352,4.4352,4.435,4.436,4.4356,4.4366,4.4363,4.4369,4.437,4.437,4.4369,4.4376,4.4378,4.4375,4.4372,4.4375,4.4377,4.4376,4.4377,4.4384,4.4381,4.4353,4.4349,4.4345,4.4342,4.4385,4.4385,4.4409,4.4409,4.4409]}]]